Location: Cucq
(50.4773°N, 1.6202°E)
Time: 06:28:48
(UTC+00:00)

SL-19 R/B - Pass Details

Date: 07 August 2020
Orbit: 795 x 1010 km, 99.4° (Epoch: 23 September)

Event Time Altitude Azimuth Distance (km) Brightness Sun altitude
Rises 01:31:29 0° 14° (NNE) 3,685 9.1 -20.2°
Reaches altitude 10° 01:34:01 10° 13° (NNE) 2,708 8.0 -20.0°
Maximum altitude 01:40:02 72° 291° (WNW) 976 4.4 -19.6°
Enters shadow 01:42:37 34° 215° (SW) 1,442 4.9 -19.4°
